This is the latest recevied weather packets stored in our database for station/object KA9CBS. If no packets are shown the sender has not sent any weather packets the latest 10 day(s).
| Time | Temp. | Humidity | Pressure | Rain* | Wind** | Luminosity | Snow |
|---|---|---|---|---|---|---|---|
| 1777817880 | 12.22° C | 71% | 1021.3 hPa | 0 mm | - | 466 W/m² | - |
| 1777817578 | 11.67° C | 73% | 1021.5 hPa | 0 mm | - | 412 W/m² | - |
| 1777817275 | 11.67° C | 73% | 1021.5 hPa | 0 mm | - | 353 W/m² | - |
| 1777816972 | 11.67° C | 76% | 1021.5 hPa | 0 mm | - | 330 W/m² | - |
| 1777816668 | 11.11° C | 76% | 1021.5 hPa | 0 mm | - | 327 W/m² | - |
| 1777816365 | 11.11° C | 76% | 1021.3 hPa | 0 mm | - | 311 W/m² | - |
| 1777816063 | 11.11° C | 77% | 1021.6 hPa | 0 mm | - | 303 W/m² | - |
| 1777815760 | 10.56° C | 78% | 1021.6 hPa | 0 mm | - | 283 W/m² | - |
| 1777815458 | 10° C | 81% | 1021.4 hPa | 0 mm | - | 269 W/m² | - |
| 1777815155 | 10° C | 82% | 1021.5 hPa | 0 mm | - | 258 W/m² | - |
| 1777814851 | 10° C | 82% | 1021.3 hPa | 0 mm | - | 241 W/m² | - |
| 1777814547 | 10° C | 82% | 1021.4 hPa | 0 mm | - | 226 W/m² | - |
| 1777814244 | 9.44° C | 84% | 1021.3 hPa | 0 mm | - | 210 W/m² | - |
| 1777813941 | 9.44° C | 83% | 1021.2 hPa | 0 mm | - | 194 W/m² | - |
| 1777813639 | 9.44° C | 84% | 1021.4 hPa | 0 mm | - | 178 W/m² | - |
| 1777813336 | 9.44° C | 83% | 1021.2 hPa | 0 mm | - | 161 W/m² | - |
| 1777813034 | 8.89° C | 85% | 1021.2 hPa | 0 mm | - | 145 W/m² | - |
| 1777812731 | 8.89° C | 84% | 1021.2 hPa | 0 mm | - | 131 W/m² | - |
| 1777812427 | 8.89° C | 85% | 1021.4 hPa | 0 mm | - | 67 W/m² | - |
| 1777812126 | 8.33° C | 86% | 1021.2 hPa | 0 mm | - | 64 W/m² | - |
| 1777811824 | 8.33° C | 87% | 1021.1 hPa | 0 mm | - | 62 W/m² | - |
| 1777811521 | 8.33° C | 88% | 1021.4 hPa | 0 mm | - | 58 W/m² | - |
| 1777811216 | 7.78° C | 89% | 1021.2 hPa | 0 mm | - | 53 W/m² | - |
| 1777810914 | 7.78° C | 89% | 1021.1 hPa | 0 mm | - | 46 W/m² | - |
| 1777810610 | 7.78° C | 91% | 1021.3 hPa | 0 mm | - | 42 W/m² | - |
* Rain latest hour (hover to see other rain measurements)
** Current wind speed in m/s (hover to see current wind gust speed)